sat.trackr.live / text

‹ back to catalog

STARLINK-34320

NORAD 64217 · 2025-117Q

PAYLOAD ACTIVE UNKNOWN

§ Identity

Operator
Country
US
Launch date
2025-05-31
Launch site
AFWTR
Launch vehicle
Mass (kg)
RCS (m²)

Purposes: comms

External: N2YO · Heavens-Above · Gunter

§ Orbital elements

Epoch: 2026-09-20T06:40:29.193024Z

Period
93.85 min
Inclination
53.1560°
Eccentricity
0.0000935
Mean motion
15.34418282 rev/d
Perigee alt
462.0 km
Apogee alt
463.3 km
Semi-major
6,840.8 km
B*
6.9144e-4
RAAN
212.5304°
Arg perigee
175.1719°
Mean anomaly
184.9292°
Rev number
7,436

§ Raw data

STARLINK-343201 64217U 25117Q   26263.27811566  .00023071  00000+0  69144-3 0  99902 64217  53.1560 212.5304 0000935 175.1719 184.9292 15.34418282 74360

JSON: /api/v1/satellites/64217 · /tle

For live sub-satellite position, see the globe view (requires WebGL).

§ Visibility from observer

Set your observer location to see the next 7 days of passes ≥ 10°. The values pass through the URL so the page stays shareable.

No JS? Fill the form by hand. The geolocation button needs JavaScript.